Location: Gull Harbor
(47.1000°N, 122.9000°W)
Time: 15:16:49
(UTC-07:00)

Tiangong 2 - Pass Details

Date: 22 March 2019
Orbit: 378 x 389 km, 42.8° (Epoch: 17 April)

Event Time Altitude Azimuth Distance (km) Brightness Sun altitude
Exits shadow 05:24:34 15° 164° (SSE) 1,123 3.3 -18.5°
Drops below altitude 10° 05:25:32 10° 149° (SSE) 1,398 4.0 -18.3°
Sets 05:27:55 0° 133° (SE) 2,251 5.3 -17.9°
